Wetbulb
54.27 54.50 54.11 53.55 53.69 53.60 53.82 53.53 53.49 53.37 53.82 53.69 53.68 53.46 52.98 52.51 52.90 53.21 53.42 53.74 54.50 55.44 56.07 56.86 55.91 56.45 53.50 45.79 44.36 53.04 59.57 61.62 59.73 57.40 54.37 52.27 48.60 46.50 44.39 44.62 45.83 43.63 44.44 47.03 47.25 48.64 48.42
53.25 53.15 53.21 53.18 52.63 52.32 52.60 52.29 52.25 52.14 52.20 52.55 52.35 52.06 52.34 52.08 51.88 52.03 52.06 52.10 52.93 53.35 53.64 55.23 56.81 55.42 49.49 39.59 49.21 53.48 54.57 53.91 57.66 55.73 53.74 52.83 49.97 49.78 45.99 45.01 44.36 44.90 46.06 46.62 47.29 47.33 47.96
53.07 52.94 52.64 52.48 52.17 52.18 52.10 51.95 51.60 51.47 51.63 52.02 51.71 51.35 50.89 50.90 51.02 51.12 51.47 52.17 52.42 52.58 52.69 53.51 55.08 53.76 47.12 42.72 49.02 51.34 52.10 52.87 56.58 56.25 52.61 53.84 53.29 49.69 47.84 43.76 46.26 46.11 41.43 43.30 46.33 47.32 46.04
52.25 52.23 51.98 51.70 51.83 51.65 51.51 51.31 51.00 51.21 51.22 51.27 51.11 50.62 50.46 50.35 50.44 50.50 50.61 50.82 50.75 51.10 51.78 52.60 54.02 51.38 42.13 50.90 51.89 50.41 50.41 48.73 54.85 56.68 55.43 54.25 53.98 50.16 48.04 47.82 44.32 39.02 39.74 35.69 41.65 46.76 46.85
51.59 51.31 51.31 51.06 51.27 51.30 51.21 50.84 50.72 50.82 50.90 50.87 50.69 50.21 50.17 50.43 50.27 50.14 50.12 50.71 51.78 52.84 53.10 52.26 50.61 47.48 39.14 51.12 47.60 49.80 49.46 46.93 51.17 53.34 53.42 55.08 51.29 46.61 46.94 42.42 38.75 39.66 32.97 34.50 38.13 45.76 44.89
51.17 51.10 50.84 50.60 50.81 51.02 50.83 50.74 50.63 50.63 50.55 50.18 50.12 49.61 49.31 49.27 49.47 49.65 50.68 50.97 52.16 52.94 51.94 52.25 51.29 43.01 43.74 40.38 46.94 49.31 49.79 49.53 47.21 47.90 48.46 48.93 47.22 43.76 42.59 39.93 32.09 34.72 34.21 33.77 35.45 43.30 44.81
50.81 50.77 50.60 50.35 50.49 50.42 50.10 50.14 49.98 49.98 49.97 49.38 49.24 48.90 48.92 48.79 48.79 49.14 45.05 45.11 41.22 39.56 44.90 40.43 40.49 39.23 41.23 46.10 48.03 47.41 49.23 46.54 44.29 43.10 40.37 42.14 39.11 35.22 39.14 40.98 40.78 38.00 34.95 34.66 36.54 42.55 42.72
49.69 50.11 49.99 49.78 49.73 49.66 49.62 49.52 49.44 49.60 49.54 49.00 48.69 48.66 48.81 48.83 48.70 48.33 40.09 36.41 40.32 40.96 34.78 41.61 42.23 43.12 45.27 44.34 39.49 43.31 48.87 41.64 39.19 36.55 41.00 38.07 35.60 39.75 40.14 39.75 39.97 38.69 35.01 34.12 36.28 40.59 41.67
49.47 49.52 49.82 49.91 49.93 49.94 49.96 49.41 49.83 50.42 49.93 49.43 49.07 48.71 48.63 48.53 48.53 41.57 37.28 36.73 44.05 44.08 37.76 38.67 42.35 41.35 42.16 44.18 39.37 39.22 45.04 41.56 39.20 37.23 37.01 34.45 34.95 40.70 38.99 37.36 36.24 36.55 35.14 33.25 32.74 37.41 41.16
49.43 49.76 49.90 49.35 49.32 49.42 49.21 49.25 49.09 49.32 49.34 49.03 48.80 48.50 48.47 49.05 40.04 38.44 35.55 42.24 42.45 43.44 30.20 30.74 35.99 40.17 42.27 43.19 37.69 44.66 44.94 42.39 36.73 35.15 35.46 35.17 38.85 36.42 36.30 35.35 36.97 32.62 38.12 38.25 37.05 34.44 29.03
48.67 49.56 49.20 49.47 49.41 49.48 49.77 49.75 49.78 49.57 48.84 48.14 48.24 48.33 48.19 47.91 38.23 35.17 38.39 41.93 41.98 42.37 12.28 29.87 34.95 44.38 42.64 38.01 37.12 39.34 45.46 40.42 35.76 34.10 34.87 32.03 33.55 33.50 33.41 34.81 37.51 34.44 38.03 36.75 36.49 34.25 33.49
49.00 49.00 49.02 49.62 49.63 49.26 49.42 49.36 49.32 49.13 48.54 48.07 47.77 47.85 47.97 42.33 37.16 39.40 41.15 40.58 38.49 24.64 12.57 28.05 35.76 35.54 35.77 37.28 37.32 39.45 39.43 41.66 39.46 35.31 34.36 34.12 38.16 36.46 35.51 38.26 38.31 38.78 35.71 35.75 35.79 34.11 27.15
48.65 48.24 48.19 48.22 48.76 48.46 48.37 48.32 48.49 48.46 48.16 47.73 47.36 47.37 45.38 41.33 32.74 40.16 39.80 37.03 23.59 17.13 28.51 27.51 30.38 33.25 33.41 32.69 34.34 34.86 34.55 34.14 31.99 28.64 28.52 31.40 32.63 35.04 38.20 33.45 37.12 36.44 33.60 26.11 25.57 25.35 24.94
47.67 48.27 48.92 48.57 48.21 48.46 47.71 47.23 47.66 47.92 47.65 47.17 46.87 46.69 42.92 40.12 38.69 40.67 38.99 29.54 17.11 23.89 25.68 32.54 30.59 30.95 29.08 32.31 32.40 32.77 31.68 30.59 34.62 30.26 25.47 25.28 23.51 32.75 36.16 34.85 31.59 33.38 33.07 26.84 21.97 22.86 23.13
48.10 48.81 48.44 47.91 47.82 47.68 47.23 46.95 47.08 47.09 46.90 46.70 45.96 38.25 36.36 36.65 40.33 37.59 30.05 21.02 18.76 25.35 27.94 26.74 28.35 25.17 26.77 31.70 30.64 29.68 29.74 30.56 32.97 33.76 27.94 24.71 24.66 33.80 35.74 37.04 37.22 33.43 30.68 36.53 30.08 26.45 21.06
47.95 48.21 47.70 47.47 47.37 47.06 46.81 46.65 46.62 46.55 46.49 46.25 37.26 33.07 32.64 38.63 37.24 33.70 21.10 19.92 24.96 28.67 26.43 27.04 22.55 26.67 23.76 26.86 28.71 31.02 28.22 31.74 32.70 35.42 36.30 29.61 23.85 31.42 33.65 36.45 37.92 36.43 38.92 29.94 31.08 23.31 20.87
47.64 47.51 47.22 47.06 46.83 46.48 46.38 46.18 46.07 46.09 46.25 45.50 32.79 28.02 33.82 37.06 35.57 27.56 14.16 17.26 24.63 28.48 28.18 23.87 23.15 24.00 25.90 26.43 27.03 26.53 29.09 33.07 34.44 33.35 36.53 34.13 29.55 26.53 31.12 30.77 30.93 34.61 33.84 33.15 32.98 31.04 21.53
46.97 47.10 46.95 46.53 46.21 46.04 45.87 46.01 45.81 45.92 45.87 39.71 30.93 23.90 33.98 35.14 22.64 21.84 17.42 23.59 28.24 26.33 29.27 26.22 27.45 25.78 21.43 23.29 22.33 26.44 26.54 30.21 28.89 31.98 32.52 34.61 32.25 25.88 26.79 31.30 34.72 35.81 34.49 34.05 27.98 27.24 27.86
46.40 46.38 46.11 45.87 45.61 45.45 45.44 45.41 45.40 45.49 45.27 39.42 32.76 29.38 33.90 32.57 12.52 15.82 21.80 24.81 25.64 24.66 24.52 25.13 24.02 25.47 26.20 22.48 19.33 20.84 21.13 29.84 29.32 27.40 29.85 32.72 30.01 23.93 22.19 26.00 30.38 32.52 33.42 35.83 32.39 30.93 28.71
45.62 45.66 45.54 45.27 45.26 45.16 45.10 45.03 44.84 44.79 45.04 39.85 32.88 22.19 24.70 26.36 25.17 14.00 11.41 20.34 21.20 27.37 24.98 26.67 25.16 26.34 23.21 20.32 22.67 17.75 19.49 25.67 27.52 27.58 34.31 34.55 31.37 27.62 21.43 24.47 28.73 26.77 31.91 34.23 33.81 29.09 25.98
44.97 45.16 45.49 45.43 45.14 45.02 44.70 44.46 44.46 44.59 44.49 39.03 33.26 25.22 24.39 16.59 21.39 23.43 23.49 18.69 20.01 19.95 25.11 25.21 21.98 23.14 21.54 16.58 18.06 18.35 20.43 21.81 25.61 29.67 30.02 28.19 24.23 29.47 29.93 30.78 30.09 29.67 30.81 32.70 32.06 32.18 27.53
44.55 45.06 44.83 45.01 44.92 44.93 44.64 44.28 44.21 44.56 44.13 35.28 28.78 27.36 29.42 21.08 23.14 23.55 23.62 20.96 20.84 21.68 19.85 20.05 19.95 20.98 22.34 17.82 19.23 16.43 19.73 19.80 19.68 25.74 25.20 28.24 20.96 23.64 23.98 29.82 30.33 27.34 30.05 31.99 32.45 33.03 32.19
44.78 44.65 44.41 44.59 44.31 44.42 44.19 44.08 44.05 44.19 42.96 35.64 36.31 35.37 30.75 23.12 20.78 19.79 21.18 21.85 21.18 23.90 24.54 24.84 22.86 20.58 20.10 22.11 24.77 23.71 24.15 24.13 23.12 21.40 21.00 22.04 22.32 22.94 21.71 27.09 27.43 24.23 28.45 28.90 31.49 33.94 33.03
44.89 44.89 44.58 44.10 43.87 44.04 43.84 43.77 43.72 43.65 42.77 38.09 37.07 34.86 27.89 19.81 21.25 21.60 23.96 24.82 22.77 23.55 21.58 24.47 24.75 21.81 25.39 27.29 25.99 24.78 23.25 23.23 22.93 22.53 24.57 20.34 21.97 22.93 21.15 25.74 18.50 27.08 34.81 34.69 31.91 33.51 34.80
44.79 44.49 44.29 43.94 43.69 43.87 43.95 43.84 43.73 43.61 43.73 36.87 37.27 34.43 29.48 21.39 23.46 23.07 23.68 23.69 24.08 24.49 23.73 24.43 25.71 28.21 29.14 23.57 18.87 15.77 15.12 18.73 21.15 21.93 21.81 24.04 21.34 20.23 19.77 22.18 25.37 27.77 29.56 31.36 29.68 30.49 34.46
44.09 44.11 44.02 44.07 43.84 43.70 43.49 43.47 43.43 43.28 43.41 38.86 35.67 37.88 33.28 24.82 20.96 25.95 24.23 22.64 20.92 18.98 18.38 23.48 27.57 28.04 25.90 22.77 18.40 9.20 6.87 14.56 14.82 20.61 23.86 23.64 24.37 21.36 22.37 19.86 18.66 26.97 32.22 33.58 33.71 27.22 34.44
43.70 43.58 43.45 43.49 43.47 43.22 43.29 43.23 43.22 43.01 42.93 39.29 37.04 38.50 33.29 24.72 24.18 24.75 20.77 22.47 25.58 19.48 17.59 17.68 18.31 21.69 25.71 18.61 13.88 12.12 10.17 16.19 13.14 15.16 17.53 18.58 20.12 17.42 19.32 19.82 24.74 31.64 29.05 33.62 23.76 27.04 32.87
43.50 43.27 43.22 43.40 43.28 43.01 42.84 42.59 42.70 42.96 42.90 38.83 34.16 37.69 34.00 28.30 25.81 28.21 28.63 22.33 22.45 22.53 19.60 17.19 19.55 16.58 16.79 16.95 16.10 14.91 14.01 19.73 18.40 19.81 16.94 19.21 19.13 18.08 20.79 20.00 17.83 26.86 29.53 26.00 28.40 30.67 33.19
43.63 43.50 43.27 43.08 43.13 42.86 42.82 42.98 42.56 42.57 42.68 42.19 29.86 35.79 36.90 31.89 25.54 30.33 31.46 31.85 30.17 29.20 24.84 21.27 20.78 18.41 20.89 14.46 17.01 19.05 16.01 16.49 14.00 11.13 23.83 19.67 27.17 22.93 24.69 24.18 27.38 26.15 25.12 27.74 28.25 29.81 31.80
MSLP
1026.12 1025.91 1025.77 1025.54 1025.34 1025.01 1024.66 1024.35 1024.05 1023.69 1023.36 1022.95 1022.57 1022.20 1021.78 1021.37 1020.90 1020.35 1019.83 1019.34 1018.79 1018.30 1018.02 1017.78 1017.52 1017.37 1017.27 1016.98 1014.29 1012.57 1012.50 1012.30 1012.89 1013.59 1014.23 1014.82 1015.33 1015.51 1015.39 1015.39 1015.70 1015.54 1014.79 1014.34 1014.11 1014.05 1013.84
1026.20 1026.01 1025.80 1025.58 1025.38 1025.23 1024.95 1024.65 1024.24 1023.85 1023.46 1023.00 1022.57 1022.14 1021.88 1021.42 1020.90 1020.32 1019.75 1019.18 1018.58 1018.08 1017.71 1017.58 1017.30 1017.13 1017.13 1016.09 1012.83 1012.46 1012.48 1012.71 1012.74 1013.40 1013.98 1014.53 1014.71 1014.89 1015.01 1015.00 1015.12 1014.48 1014.38 1014.12 1014.01 1013.72 1013.77
1026.50 1026.29 1026.15 1025.84 1025.63 1025.37 1025.08 1024.77 1024.46 1024.07 1023.65 1023.13 1022.70 1022.24 1021.84 1021.25 1020.71 1020.11 1019.47 1018.81 1018.17 1017.63 1017.35 1017.15 1016.89 1016.67 1015.85 1013.10 1012.41 1012.16 1012.34 1012.38 1012.50 1012.87 1013.56 1013.87 1014.24 1014.61 1014.74 1014.70 1014.07 1014.31 1014.45 1014.08 1013.68 1013.48 1013.49
1026.71 1026.57 1026.36 1026.09 1025.83 1025.64 1025.38 1025.05 1024.67 1024.21 1023.71 1023.24 1022.83 1022.42 1021.88 1021.29 1020.62 1019.90 1019.03 1018.23 1017.43 1016.97 1016.64 1016.41 1016.21 1015.95 1013.68 1012.52 1012.00 1012.01 1012.09 1012.41 1012.37 1012.44 1012.80 1013.18 1013.65 1014.35 1014.60 1014.22 1013.89 1014.19 1014.46 1014.10 1012.76 1013.06 1013.18
1027.02 1026.85 1026.63 1026.42 1026.07 1025.69 1025.38 1025.09 1024.72 1024.19 1023.66 1023.18 1022.78 1022.32 1021.75 1020.99 1020.28 1019.53 1018.50 1017.03 1015.62 1015.14 1015.48 1015.67 1015.61 1015.30 1013.23 1011.81 1011.41 1010.77 1011.45 1011.70 1012.11 1012.47 1012.86 1013.08 1013.64 1013.88 1014.13 1014.18 1014.16 1013.79 1013.44 1013.38 1013.12 1012.69 1012.73
1027.36 1027.00 1026.82 1026.56 1026.24 1025.90 1025.57 1025.20 1024.74 1024.17 1023.66 1023.25 1022.76 1022.19 1021.53 1020.71 1019.84 1018.94 1017.74 1015.82 1014.62 1014.11 1014.40 1014.80 1014.88 1015.60 1012.95 1010.76 1010.23 1009.96 1010.22 1010.98 1011.81 1012.45 1013.08 1013.23 1013.37 1013.09 1013.45 1013.29 1012.57 1013.11 1013.37 1013.11 1012.60 1012.32 1012.43
1027.54 1027.32 1027.08 1026.78 1026.35 1025.95 1025.55 1025.15 1024.51 1024.14 1023.69 1023.34 1022.70 1022.10 1021.57 1020.53 1019.75 1018.82 1017.55 1015.88 1015.49 1015.04 1014.81 1014.18 1013.60 1012.22 1011.04 1009.97 1009.44 1009.71 1009.90 1010.79 1011.48 1012.17 1012.41 1012.60 1012.52 1011.95 1011.98 1012.40 1012.90 1013.29 1013.11 1012.67 1011.74 1011.46 1011.47
1027.68 1027.32 1027.08 1026.84 1026.51 1026.11 1025.63 1025.11 1024.69 1024.12 1023.63 1023.11 1022.59 1022.08 1021.26 1020.53 1019.48 1018.66 1018.60 1018.29 1017.80 1018.07 1014.80 1013.34 1012.10 1011.53 1010.44 1010.19 1010.14 1009.51 1009.72 1010.60 1011.13 1011.20 1012.11 1012.70 1011.16 1011.68 1012.31 1012.45 1012.70 1012.94 1012.77 1012.58 1011.88 1011.28 1011.21
1027.51 1027.16 1026.90 1026.70 1026.39 1025.84 1025.43 1024.97 1024.48 1023.90 1023.44 1022.96 1022.31 1021.70 1021.07 1020.36 1019.29 1019.16 1019.48 1018.58 1018.00 1017.72 1015.99 1010.64 1009.87 1009.37 1009.23 1009.81 1009.02 1009.40 1009.68 1009.86 1010.43 1010.91 1011.28 1011.06 1010.75 1011.44 1011.95 1012.23 1012.52 1012.22 1012.41 1012.62 1012.27 1011.52 1010.82
1027.60 1027.37 1026.97 1026.56 1026.10 1025.75 1025.33 1024.76 1024.28 1023.76 1023.35 1022.86 1022.25 1021.55 1021.00 1020.32 1019.79 1019.59 1018.87 1018.43 1018.22 1017.94 1016.29 1011.00 1009.16 1007.99 1008.01 1008.66 1008.50 1007.83 1008.66 1009.36 1010.01 1010.17 1011.08 1011.06 1011.05 1011.22 1011.48 1011.45 1011.80 1011.56 1011.88 1012.14 1012.19 1012.33 1011.17
1027.56 1027.27 1026.97 1026.48 1026.08 1025.52 1025.11 1024.68 1024.17 1023.72 1023.30 1022.76 1022.32 1021.53 1020.99 1020.30 1020.34 1019.83 1018.84 1018.34 1018.01 1017.77 1016.22 1010.04 1008.23 1007.14 1007.30 1007.90 1007.23 1006.78 1007.24 1008.52 1008.61 1009.65 1010.47 1009.83 1010.29 1010.66 1010.68 1010.14 1011.01 1010.79 1011.24 1011.67 1011.86 1011.73 1011.18
1027.50 1027.17 1026.80 1026.25 1025.84 1025.49 1024.99 1024.50 1024.07 1023.60 1023.13 1022.66 1022.03 1021.42 1020.75 1020.36 1020.51 1019.45 1018.61 1018.19 1018.00 1017.94 1014.31 1009.97 1008.01 1007.61 1008.17 1007.86 1007.44 1007.24 1007.71 1008.11 1008.60 1009.53 1009.62 1009.51 1009.60 1009.67 1009.22 1009.53 1010.00 1010.36 1011.30 1011.39 1011.46 1011.44 1010.28
1027.30 1026.76 1026.48 1026.04 1025.55 1025.13 1024.49 1024.11 1023.79 1023.25 1022.80 1022.31 1021.82 1021.19 1020.47 1020.32 1020.25 1019.30 1018.69 1018.49 1018.29 1016.35 1012.70 1010.58 1009.45 1008.98 1008.63 1008.15 1007.82 1007.67 1007.91 1008.17 1008.10 1009.04 1009.12 1009.56 1009.21 1008.93 1008.87 1009.32 1009.61 1010.42 1010.97 1011.14 1010.63 1009.73 1008.25
1027.06 1026.52 1026.04 1025.69 1025.17 1024.85 1024.21 1023.80 1023.38 1023.06 1022.50 1022.05 1021.71 1021.23 1020.03 1019.75 1019.40 1019.20 1019.25 1019.22 1017.68 1015.09 1013.87 1011.85 1011.49 1010.05 1009.31 1008.31 1008.01 1007.68 1007.97 1008.23 1008.40 1008.48 1008.72 1009.04 1008.69 1008.24 1007.53 1007.45 1008.23 1008.94 1009.72 1009.59 1008.71 1008.05 1008.27
1026.86 1026.41 1026.05 1025.59 1025.25 1024.70 1023.97 1023.60 1023.20 1022.65 1022.21 1021.84 1021.52 1021.04 1020.30 1019.69 1019.40 1019.36 1019.92 1019.50 1017.85 1017.00 1016.35 1014.68 1012.53 1011.26 1010.04 1009.39 1009.24 1008.27 1008.07 1008.00 1007.79 1008.04 1008.31 1008.17 1007.72 1006.40 1005.89 1006.28 1007.22 1007.95 1008.20 1008.44 1008.60 1008.18 1007.61
1026.70 1026.24 1025.71 1025.39 1024.77 1024.35 1023.88 1023.46 1022.96 1022.39 1021.90 1021.60 1021.72 1021.55 1020.26 1019.24 1019.17 1019.71 1020.36 1019.67 1018.97 1018.30 1017.59 1016.04 1014.61 1013.11 1012.02 1011.12 1010.60 1009.32 1008.38 1007.78 1007.66 1007.27 1007.35 1007.26 1007.05 1005.91 1005.28 1006.07 1006.25 1006.45 1007.01 1008.19 1008.08 1007.51 1006.99
1026.40 1025.96 1025.52 1025.07 1024.43 1024.11 1023.72 1023.20 1022.79 1022.18 1021.72 1021.43 1022.15 1022.03 1019.59 1019.09 1019.28 1020.08 1020.56 1019.85 1019.02 1018.33 1018.04 1017.47 1016.08 1014.91 1013.54 1012.64 1011.70 1010.87 1009.67 1009.33 1008.94 1007.77 1007.25 1007.36 1007.27 1006.33 1005.71 1005.22 1005.12 1006.02 1006.35 1006.62 1006.86 1006.75 1006.28
1026.25 1025.92 1025.44 1024.91 1024.47 1023.90 1023.46 1023.00 1022.57 1022.12 1021.75 1021.73 1022.09 1021.93 1019.97 1019.25 1020.17 1020.67 1020.62 1019.94 1019.31 1018.13 1017.45 1017.08 1016.56 1016.11 1015.59 1014.74 1013.32 1011.80 1011.08 1010.34 1011.23 1009.79 1008.40 1007.55 1007.15 1006.38 1005.53 1004.61 1004.47 1004.71 1005.22 1006.06 1005.89 1006.12 1005.90
1025.97 1025.54 1025.04 1024.60 1024.20 1023.68 1023.12 1022.77 1022.41 1021.99 1021.45 1021.87 1021.85 1021.40 1020.16 1020.02 1020.79 1021.12 1020.63 1019.96 1019.16 1018.22 1017.57 1017.17 1016.76 1016.34 1016.45 1016.06 1015.33 1014.07 1013.15 1011.57 1011.61 1011.33 1010.30 1009.51 1007.36 1006.52 1005.78 1005.10 1004.34 1004.35 1004.63 1004.80 1005.06 1005.12 1004.67
1025.88 1025.30 1024.72 1024.23 1023.80 1023.45 1022.99 1022.46 1021.97 1021.85 1021.41 1021.96 1021.69 1021.79 1021.03 1020.76 1021.04 1021.28 1021.16 1020.05 1019.11 1018.31 1017.64 1017.24 1017.00 1016.68 1016.43 1016.28 1015.96 1014.92 1014.22 1013.03 1012.61 1011.78 1010.63 1010.07 1008.28 1006.71 1005.55 1004.06 1003.58 1003.76 1003.57 1003.97 1004.19 1004.53 1004.31
1025.64 1024.97 1024.52 1023.96 1023.52 1023.04 1022.63 1022.23 1021.74 1021.28 1021.27 1022.02 1021.56 1021.38 1021.27 1021.35 1021.04 1021.00 1020.82 1020.15 1019.19 1018.61 1017.77 1017.37 1017.17 1016.95 1016.90 1016.64 1016.01 1015.29 1014.77 1013.69 1012.37 1011.57 1011.32 1011.28 1009.43 1007.66 1006.13 1004.72 1003.75 1002.90 1002.64 1002.89 1003.34 1003.12 1003.34
1025.44 1024.79 1024.24 1023.64 1023.15 1022.80 1022.47 1022.03 1021.67 1021.09 1020.89 1021.61 1021.59 1020.93 1020.86 1020.56 1020.63 1020.67 1020.17 1019.50 1018.89 1018.30 1018.30 1017.53 1017.32 1017.06 1016.99 1016.93 1016.68 1015.84 1015.66 1015.14 1014.14 1012.68 1012.48 1012.25 1010.82 1009.04 1006.42 1004.65 1003.68 1002.81 1002.09 1001.92 1002.17 1002.25 1001.88
1025.02 1024.45 1023.85 1023.25 1022.92 1022.40 1021.99 1021.71 1021.43 1020.80 1020.70 1020.92 1020.43 1020.64 1020.37 1019.88 1020.22 1020.31 1019.43 1018.89 1018.47 1018.14 1017.61 1017.30 1017.18 1016.98 1016.47 1016.05 1015.98 1015.69 1015.46 1015.02 1014.46 1014.19 1013.14 1013.11 1011.78 1009.77 1006.83 1004.99 1003.64 1002.49 1000.44 1001.23 1000.95 1000.96 1000.79
1024.50 1024.06 1023.58 1023.01 1022.61 1022.19 1021.58 1021.24 1020.93 1020.55 1020.29 1020.73 1020.45 1020.30 1019.73 1019.43 1019.48 1019.13 1018.74 1018.44 1018.11 1017.75 1017.55 1017.01 1017.11 1016.85 1015.50 1015.77 1015.67 1015.23 1014.84 1013.96 1012.72 1012.40 1012.57 1012.31 1011.74 1010.61 1007.64 1005.58 1002.92 999.83 999.25 999.73 999.85 999.60 999.92
1024.10 1023.74 1023.24 1022.62 1022.19 1021.85 1021.44 1020.93 1020.40 1020.04 1019.57 1019.81 1019.73 1019.86 1019.12 1018.96 1018.60 1018.12 1018.08 1017.93 1017.56 1017.38 1017.27 1016.86 1016.08 1015.59 1015.63 1016.08 1015.86 1015.01 1013.96 1012.73 1010.46 1009.65 1010.30 1010.74 1011.22 1010.28 1008.25 1005.51 1003.00 1000.46 999.24 998.79 999.15 998.48 998.98
1024.03 1023.59 1023.06 1022.46 1021.98 1021.52 1020.82 1020.34 1020.02 1019.53 1019.06 1018.91 1019.03 1018.99 1019.08 1018.77 1017.74 1017.64 1017.64 1017.38 1017.43 1017.22 1016.95 1016.25 1015.59 1015.45 1015.81 1015.98 1015.84 1014.91 1014.06 1012.45 1010.45 1008.85 1008.63 1009.80 1010.44 1009.83 1007.96 1005.87 1003.24 1000.47 998.98 998.41 998.94 998.56 998.34
1023.76 1023.26 1022.79 1022.33 1021.70 1021.27 1020.54 1020.00 1019.62 1019.02 1018.48 1018.46 1018.51 1018.46 1018.45 1018.19 1017.02 1017.27 1017.17 1017.06 1016.72 1016.93 1016.89 1016.46 1016.11 1015.78 1015.49 1015.50 1015.14 1014.47 1013.62 1012.89 1010.97 1009.34 1009.03 1009.62 1009.77 1008.35 1007.46 1006.08 1003.45 1001.23 1000.65 999.76 999.96 999.68 998.51
1023.42 1022.80 1022.32 1021.92 1021.46 1020.74 1020.10 1019.56 1019.12 1018.40 1017.90 1017.76 1017.56 1017.54 1017.95 1017.49 1016.49 1016.43 1016.07 1016.06 1016.20 1016.14 1016.26 1016.10 1016.21 1015.75 1015.77 1015.32 1014.62 1013.76 1012.86 1011.41 1010.77 1009.40 1008.30 1007.99 1007.72 1007.46 1007.13 1005.53 1004.02 1002.17 1001.35 1001.89 1001.61 1000.23 999.73
1023.04 1022.37 1022.06 1021.54 1020.90 1020.19 1019.63 1018.89 1018.32 1017.78 1017.20 1016.70 1017.05 1016.66 1016.88 1017.19 1016.20 1015.35 1014.48 1014.30 1014.57 1014.05 1014.99 1015.44 1015.23 1015.14 1014.60 1014.43 1014.06 1013.55 1012.79 1012.16 1010.86 1009.68 1008.17 1007.85 1006.49 1006.12 1005.00 1003.68 1002.91 1002.77 1002.87 1002.56 1002.55 1002.07 1000.91
Wind_Speed
14 15 14 14 15 16 17 16 16 17 18 18 18 18 19 20 20 21 21 23 23 22 20 19 14 12 3 5 13 9 12 4 12 9 9 6 5 4 5 7 5 7 5 6 13 6 10
13 14 16 16 15 15 16 17 17 17 18 18 19 20 20 21 23 23 23 24 23 23 22 20 18 10 4 16 5 8 9 5 8 10 7 8 7 6 5 6 13 6 14 11 7 9 6
13 14 15 15 14 17 18 18 19 19 20 21 21 21 22 23 24 25 26 27 26 25 23 22 19 9 13 24 4 1 2 6 6 13 9 8 7 3 1 5 9 13 5 5 9 6 7
14 15 15 15 16 17 18 19 19 19 20 21 21 22 23 24 24 26 27 30 30 29 26 23 19 12 13 6 14 22 14 5 4 8 12 7 8 6 4 5 3 7 5 11 10 9 5
14 14 15 15 16 17 16 17 18 19 20 21 22 24 25 26 28 29 32 34 30 26 21 16 10 8 12 5 12 18 10 10 6 4 6 5 6 6 4 7 4 5 9 14 3 12 7
14 14 16 16 16 17 18 19 20 20 21 22 24 25 26 28 29 30 34 33 20 8 4 7 3 5 7 7 4 6 12 12 6 8 4 7 6 6 9 9 18 8 10 5 15 11 14
15 15 16 16 18 19 19 20 19 21 22 24 24 25 27 28 29 32 15 7 7 4 4 7 6 7 7 4 2 4 7 10 7 6 14 7 8 15 15 16 9 9 9 14 6 9 15
13 14 15 16 17 18 19 19 20 21 21 22 24 26 27 29 32 25 5 5 5 7 17 20 24 25 27 2 5 4 12 12 12 16 13 5 19 17 8 8 13 14 6 10 6 5 11
14 14 16 18 18 19 20 20 21 21 21 22 24 25 27 28 31 5 11 5 9 12 9 12 17 14 13 21 22 14 14 7 16 20 19 21 5 13 11 11 15 21 16 8 7 3 7
15 16 18 17 18 19 20 20 21 21 22 23 24 27 27 30 8 8 8 5 12 11 7 9 5 8 6 8 8 25 15 13 8 21 14 16 19 6 17 20 16 20 16 17 15 7 7
17 18 18 20 19 20 21 22 23 22 21 20 23 26 26 22 8 4 7 10 11 2 6 7 4 2 4 11 2 4 24 7 17 9 9 9 12 20 18 15 16 14 7 14 17 12 3
17 18 21 21 21 23 23 23 23 22 22 22 22 27 28 9 2 7 8 9 2 1 13 8 3 3 4 4 4 3 10 2 5 7 4 12 7 11 10 14 16 4 10 6 11 11 12
18 16 18 20 20 20 21 22 24 23 22 22 22 24 22 4 5 7 6 4 4 8 4 5 3 5 6 5 5 4 13 18 13 13 15 6 12 3 7 8 10 12 6 6 11 10 10
18 20 18 19 21 22 22 24 24 24 22 22 21 23 12 5 4 5 5 2 10 3 8 8 8 15 6 4 6 7 8 14 17 3 3 13 10 18 12 18 9 20 18 8 7 6 6
19 20 18 18 20 21 22 23 23 23 23 21 16 4 5 4 3 1 5 5 4 7 9 13 17 4 5 2 5 3 9 12 13 19 11 8 10 7 11 9 19 8 18 15 5 3 2
19 19 19 19 20 21 23 24 22 23 21 19 2 4 5 3 4 3 4 7 6 7 13 11 5 5 7 7 6 5 8 5 13 19 18 5 5 7 6 9 12 8 10 11 8 5 5
19 19 19 19 21 21 22 22 21 22 20 14 3 4 4 5 3 4 3 5 3 4 4 5 11 11 9 8 5 3 7 7 11 7 16 17 3 3 6 8 18 7 8 6 3 4 4
19 20 20 21 21 22 22 22 21 21 19 5 1 2 3 3 4 0 2 2 5 4 6 5 6 4 5 11 9 4 5 1 20 14 4 11 4 10 13 4 4 17 13 6 6 5 4
21 19 20 21 21 21 21 21 20 20 17 1 2 4 3 4 0 3 5 4 5 5 6 5 5 3 4 6 7 10 16 15 14 18 11 8 4 4 1 2 3 8 10 14 5 2 7
19 19 21 20 20 21 22 22 20 18 17 1 2 3 4 3 2 5 2 6 3 4 11 4 8 8 10 5 2 12 6 9 19 13 18 6 5 4 7 4 8 7 17 14 12 5 4
19 20 21 21 22 23 20 21 21 19 17 2 2 4 4 4 3 6 4 3 13 6 4 1 4 6 6 4 10 3 15 18 14 12 5 8 6 5 10 16 7 5 14 19 16 18 10
20 21 22 22 22 23 23 19 18 21 15 2 3 3 3 3 2 7 7 4 7 7 4 4 6 8 6 5 8 16 15 11 7 8 9 5 6 11 9 14 18 9 9 16 20 20 18
20 20 21 21 22 22 21 20 20 18 12 3 1 2 1 5 2 3 4 5 6 5 7 9 7 4 12 15 10 9 9 13 15 13 17 4 4 6 6 8 7 15 22 10 15 18 19
19 21 21 21 21 22 22 20 20 19 14 3 3 3 3 3 3 6 8 8 14 14 14 15 9 9 10 5 7 7 10 18 22 19 19 10 8 4 8 7 8 6 11 21 17 17 17
20 18 20 22 22 23 23 23 22 20 20 3 3 3 3 4 5 9 12 12 11 10 12 13 16 16 10 4 4 7 6 8 13 19 20 21 11 4 5 5 10 8 4 12 15 25 14
20 19 20 22 23 23 23 23 22 20 20 6 3 3 3 3 6 6 6 5 6 5 4 9 8 2 3 2 4 4 5 4 7 3 11 15 16 8 6 5 6 7 5 3 6 15 8
20 20 21 22 22 23 23 23 23 23 20 6 4 6 3 2 6 5 5 5 3 1 4 4 5 3 4 4 5 7 8 6 6 5 6 7 8 18 12 9 6 9 6 7 8 6 4
21 21 22 23 23 23 24 24 24 24 23 10 4 6 4 3 7 9 6 6 2 3 9 4 4 3 1 4 3 3 5 2 3 5 4 5 9 8 9 11 15 3 3 3 3 7 5
23 24 25 25 25 26 26 28 26 25 24 18 3 2 3 4 8 7 15 16 14 22 8 5 7 3 4 1 2 3 5 3 3 4 3 5 6 3 12 8 2 3 1 6 5 7 6
Wind_Direction
27 34 31 21 17 14 14 13 11 6 359 356 354 350 345 338 336 333 325 318 313 310 310 315 307 304 317 242 243 267 301 265 190 148 184 180 181 186 206 199 184 223 242 220 236 222 216
30 24 23 17 18 15 11 6 3 0 355 351 348 345 345 339 332 327 321 313 310 305 296 299 301 295 232 254 244 229 233 245 180 171 185 175 205 209 244 230 201 209 219 231 219 214 221
29 28 22 18 16 10 8 6 3 358 353 352 349 345 339 336 332 326 320 315 307 301 296 289 285 274 236 235 226 222 354 211 186 183 186 195 206 175 239 262 223 226 251 251 233 208 219
30 24 19 13 10 9 3 3 357 354 352 350 348 345 341 335 331 326 319 313 300 291 285 280 274 257 248 225 241 248 254 280 220 198 200 176 178 210 219 311 257 181 188 239 234 195 234
26 20 14 8 4 360 360 356 352 350 349 346 344 343 338 335 333 328 323 309 297 287 277 266 254 212 258 277 229 234 192 200 180 172 185 144 131 186 168 213 243 223 231 227 255 202 178
10 10 8 359 357 353 352 350 347 346 344 344 343 340 339 334 332 329 323 311 298 303 241 221 174 218 257 230 210 202 185 178 159 145 169 192 202 201 192 192 228 208 224 222 216 200 209
4 2 355 354 355 349 347 343 341 343 344 342 341 340 338 337 335 331 337 335 10 352 352 216 221 241 284 233 242 213 162 155 125 164 192 193 208 211 219 210 243 268 212 225 222 213 190
355 350 355 349 345 344 343 340 339 336 339 340 337 337 338 336 335 334 13 2 59 289 290 230 243 245 246 295 314 227 145 159 181 201 186 189 225 222 210 235 227 227 237 253 295 248 204
343 346 344 341 339 339 337 333 331 334 335 334 333 333 335 336 329 14 330 253 357 343 268 279 220 229 232 214 236 241 180 171 197 208 194 213 227 201 203 212 221 237 233 239 249 321 231
345 344 338 336 334 332 328 327 329 330 332 332 330 327 332 338 360 328 298 309 335 320 283 279 242 251 186 165 259 214 202 178 204 208 197 227 222 183 206 220 203 237 227 240 242 267 242
336 340 331 330 324 327 329 329 325 331 328 329 328 324 330 338 288 312 262 318 320 256 310 262 247 154 169 169 253 233 196 209 195 164 170 200 184 210 224 213 208 240 187 211 228 229 240
333 335 331 334 336 333 330 330 327 325 326 330 332 323 326 331 304 250 301 307 312 352 245 289 228 166 146 253 293 61 170 215 141 180 249 220 191 193 203 213 200 171 245 271 233 224 235
330 331 330 329 330 327 334 335 330 327 327 327 331 322 320 320 265 316 321 335 200 216 271 293 343 14 255 233 224 164 179 195 193 201 215 196 225 214 175 210 193 192 173 231 212 205 227
328 325 332 332 330 334 337 333 335 329 326 325 331 318 299 267 255 298 28 276 234 269 286 3 355 310 239 193 245 193 165 200 222 185 157 212 239 204 199 207 181 198 202 216 237 186 192
328 334 330 332 330 330 334 334 333 328 328 329 334 296 290 261 272 35 64 274 277 352 351 322 319 316 305 20 358 172 185 206 213 208 206 184 236 248 207 184 183 175 210 200 267 299 115
336 330 334 331 330 338 333 332 333 329 330 334 319 327 275 286 332 89 94 253 272 21 339 338 310 316 305 339 334 314 175 212 214 215 212 224 267 226 227 170 197 175 168 188 222 210 207
333 332 331 331 334 334 328 331 327 329 331 340 42 333 273 331 71 67 178 243 297 313 17 328 324 306 288 321 281 304 314 353 357 351 222 221 218 258 117 186 191 172 192 211 171 184 199
338 337 335 335 331 330 335 329 335 333 335 46 43 285 301 5 14 350 240 214 282 279 287 270 268 359 338 325 312 304 259 79 21 323 322 219 221 223 229 235 208 210 203 189 201 187 184
343 340 337 337 333 329 329 329 331 332 332 285 277 270 322 71 230 309 302 266 264 315 316 309 293 334 324 323 318 354 342 321 356 354 3 354 255 200 212 252 192 192 210 195 149 338 190
336 338 337 334 333 334 331 330 329 330 323 87 277 300 311 44 93 131 325 287 278 302 288 255 293 297 316 311 311 295 304 328 327 320 321 259 261 269 234 260 145 201 211 202 200 208 171
336 337 337 338 336 335 331 336 329 323 325 86 225 227 191 279 272 230 202 240 283 280 264 280 296 265 314 293 316 311 323 319 323 331 32 10 289 282 270 271 255 214 198 204 205 221 202
335 337 340 340 337 334 332 331 325 324 332 192 253 265 193 261 234 261 243 223 251 279 205 263 253 283 285 266 276 292 308 301 271 307 345 41 301 326 288 252 249 239 223 202 210 221 243
330 332 332 341 340 341 337 333 327 324 338 249 227 281 245 244 206 225 244 229 252 259 234 253 263 306 293 284 278 279 279 274 260 266 281 285 262 317 281 331 223 246 226 209 220 225 218
329 328 329 335 336 334 335 333 328 322 321 200 221 273 295 284 217 246 254 256 271 260 260 281 270 255 258 349 307 282 251 256 258 243 229 230 236 257 286 330 226 262 188 215 220 232 226
342 333 330 332 334 334 332 328 326 319 311 229 224 218 254 252 250 271 254 258 265 269 269 273 268 253 288 324 291 293 282 259 239 225 212 207 203 262 270 272 299 313 226 186 194 239 218
350 343 335 335 332 331 329 328 322 322 319 307 249 176 235 268 241 241 287 248 262 259 293 251 268 288 133 245 242 239 254 301 289 293 204 196 204 218 197 242 250 241 232 113 100 257 210
348 343 337 332 333 332 329 328 323 318 315 305 244 192 233 254 254 166 214 250 208 201 236 294 283 330 186 228 246 247 250 269 272 266 156 155 189 219 217 239 285 265 322 323 123 240 17
340 337 332 330 323 324 321 319 319 319 315 313 247 191 204 258 261 213 229 220 303 204 251 252 327 323 11 239 254 211 234 236 284 280 280 184 180 190 227 217 244 20 360 185 314 315 313
333 332 327 324 319 322 318 315 317 319 317 310 248 231 172 223 248 226 247 242 216 241 246 207 225 189 247 148 286 324 313 298 254 266 299 265 227 256 194 198 215 127 186 289 296 270 293